FREGAT R/B, 43088

Orbit data source: Space-Track

FREGAT R/B, 43088 is space debris in GEO originally from a launch on Tue, 26 Dec 2017 UTC launched from the Tyuratam Missile And Space Complex (TTMTR). Debris objects in space refer to the collection of defunct objects orbiting the Earth. Examples of debris include non-operational satellites, rocket bodies, and fragments generated from explosions, collisions, or faulty payload assembly.

Not visible in the next 10 days
Identifier
43088, 2017-086B
Orbit
GEO
Country
Flag of CISCIS
Related business
Manufacturer
Lavochkin
Mission
Spacecraft
Bus & Motor
FREGAT, Unknown motor
Mass
1,000 kg wet, 1,000 kg dry
Launch date (UTC)
2017-12-26 (8 years ago)
Launch vehicle
Unknown
Launch site
Tyuratam Missile And Space Complex (TTMTR)
Object type
Payload
Rocket body
Debris
Shape & HBR
Cyl, 1.6 m
Radar Cross Section
8.683 m²

Expand to show TLE details & history
Last TLE update: 12 hours ago

TLE from 12 hours ago
0 FREGAT R/B
1 43088U 17086B   25259.10835261 -.00000063  00000-0  00000-0 0  9994
2 43088   6.8450  69.3015 0128395  21.5061 339.1950  0.98389358 27748
Epoch: 2025-09-16T02:36Z
TLE epoch observation values (Epoch: 2025-09-16T02:36:01.665Z)
Latitude
-0°
Longitude
35.15075°
Altitude
35,813.062 km
Speed
3.092 km/s
True Right ascension
04h 37m 50s
True Declination
0° 00' 00"
Sunlit
Object was in daylight at epoch
Visualization orbit readout
Latitude
Unknown
Longitude
Unknown
Altitude
Unknown
Speed
Unknown
Apparent Right ascension
Unknown
Apparent Declination
Unknown
Sunlit
N/A
Visualization observer readout
Local Sidereal Time
07:09:20
Azimuth
Unknown
Elevation
Unknown
Doppler factor
Unknown
Orbital elements
Apogee altitude
36,872.01 km
Perigee altitude
35,775.469 km
Semi-major axis
42,701.876 km
Eccentricity
0.01284
Inclination
6.845°
RAAN
69.3015°
Arg. of periapsis
21.5061°
True anomaly
338.66446°
Mean anomaly
339.195°
Eccentric anomaly
338.93053°
Mean motion
0.24596 °/min
Orbital period
1,463.62 mins
BSTAR
0
Loading maneuver chart data...
Computing Atmospheric mass density...
Loading historical data...
Loading historical data...
Loading historical data...
Loading historical data...
Loading historical data...
Loading historical data...
Loading historical data...

Documentation

Showing up to 5 results
|